Flag for Cote d'Ivoire (Ivory Coast) Weather past 2 weeks in Abidjan, Cote d'Ivoire (Ivory Coast)

Now
88 °F

Scattered clouds.


Feels Like: 100 °F
Forecast: 78 / 89 °F
Wind: 8 mph from South

Location: Abidjan Airport


UV Index: 10 (Very high)

Visibility: N/A


Pressure: 29.89 "Hg

Humidity: 70%

Dew point: 77 °F

Location of AbidjanLocation

Historic Weather in Abidjan

°F

Abidjan temperature yesterday

Maximum temperature yesterday: 90 °F (at 1:00 PM)
Minimum temperature yesterday: 75 °F (at 5:00 AM)
Average temperature yesterday: 83 °F

Past Weeks' High & Low Weather Summary

 TemperatureHumidityPressure
High90 °F (Apr 1, 2:00 PM)100% (Apr 4, 2:00 AM)29.98 "Hg (Apr 4, 2:00 AM)
Low72 °F (Apr 11, 9:00 PM)55% (Apr 11, 1:00 PM)29.74 "Hg (Apr 13, 4:00 PM)
Average83 °F81%29.86 "Hg
* Reported Apr 1 10:00 AM — Apr 16 10:00 AM, Abidjan, Weather by CustomWeather, © 2014

Note: Actual official high and low records may vary slightly from our data, if they occured in-between our weather recording intervals... More about our weather records

Advertising

Historic Weather Conditions — Data for Previous 24 hours

 ConditionsComfort  
Time TempWeatherWind HumidityBarometerVisibility
10:00 AM
Apr 16
88 °FScattered clouds.7 mph70%29.89 "HgN/A
9:30 AM86 °FScattered clouds.6 mph75%29.89 "HgN/A
9:00 AM86 °FScattered clouds.7 mph75%29.89 "HgN/A
8:30 AM84 °FScattered clouds.6 mph79%29.89 "HgN/A
8:00 AM84 °FScattered clouds.5 mph79%29.89 "HgN/A
7:30 AM84 °FScattered clouds.2 mph84%29.86 "HgN/A
7:00 AM81 °FScattered clouds.No wind94%29.86 "HgN/A
6:30 AM81 °FScattered clouds.2 mph89%29.86 "HgN/A
6:00 AM81 °FPassing clouds.3 mph89%29.83 "Hg5 mi
5:30 AM82 °FPassing clouds.6 mph84%29.83 "Hg5 mi
5:00 AM82 °FPassing clouds.7 mph84%29.83 "Hg5 mi
4:30 AM81 °FPassing clouds.7 mph89%29.80 "Hg5 mi
4:00 AM82 °FPassing clouds.5 mph84%29.80 "Hg5 mi
3:30 AM82 °FPassing clouds.6 mph84%29.80 "Hg5 mi
3:00 AM82 °FPassing clouds.8 mph84%29.80 "Hg5 mi
2:30 AM82 °FPassing clouds.7 mph84%29.83 "HgN/A
2:00 AM82 °FPassing clouds.6 mph84%29.83 "HgN/A
1:30 AM82 °FPassing clouds.7 mph84%29.83 "HgN/A
1:00 AM84 °FPassing clouds.7 mph79%29.86 "HgN/A
11:00 PM
Apr 15
82 °FPassing clouds.6 mph84%29.86 "HgN/A
10:30 PM82 °FPassing clouds.6 mph89%29.86 "HgN/A
10:00 PM82 °FPassing clouds.6 mph84%29.86 "HgN/A
9:30 PM82 °FPassing clouds.6 mph89%29.86 "HgN/A
9:00 PM82 °FPassing clouds.7 mph89%29.83 "HgN/A
8:30 PM82 °FPassing clouds.6 mph84%29.83 "HgN/A
8:00 PM82 °FPassing clouds.6 mph84%29.83 "HgN/A
7:30 PM82 °FPassing clouds.7 mph84%29.83 "HgN/A
7:00 PM82 °FPassing clouds.7 mph84%29.83 "HgN/A
6:30 PM84 °FPassing clouds.8 mph79%29.80 "HgN/A
6:00 PM84 °FScattered clouds.10 mph79%29.80 "HgN/A
5:30 PM86 °FScattered clouds.9 mph79%29.80 "HgN/A
5:00 PM86 °FScattered clouds.9 mph79%29.80 "HgN/A
4:30 PM86 °FScattered clouds.10 mph75%29.80 "HgN/A
4:00 PM86 °FScattered clouds.9 mph75%29.80 "HgN/A
3:30 PM86 °FScattered clouds.12 mph79%29.83 "HgN/A
3:00 PM88 °FScattered clouds.12 mph70%29.83 "HgN/A
2:30 PM88 °FScattered clouds.12 mph70%29.83 "HgN/A
2:00 PM88 °FScattered clouds.10 mph66%29.83 "HgN/A
1:30 PM88 °FScattered clouds.7 mph66%29.86 "HgN/A
1:00 PM90 °FScattered clouds.8 mph63%29.86 "HgN/A
12:30 PM88 °FScattered clouds.8 mph66%29.86 "HgN/A
12:00 PM88 °FScattered clouds.6 mph66%29.89 "HgN/A
11:30 AM88 °FScattered clouds.5 mph66%29.89 "HgN/A
11:00 AM88 °FScattered clouds.6 mph66%29.89 "HgN/A
Weather by CustomWeather, © 2014

See weather overview